Miscellaneous Local Product
Issued by NWS Hastings, NE

Home | Current Version | Previous Version | Text Only | Print | Product List | Glossary Off
Versions: 1 2 3 4 5 6 7 8 9 10 11 12 13 14 15 16 17 18 19 20 21 22 23 24 25 26 27 28 29 30 31 32 33 34 35 36 37 38 39 40 41 42 43 44 45 46 47 48 49 50

000
AXUS43 KGID 290902
MISGRI

GID CWA HOURLY WEATHER ROUNDUP
NATIONAL WEATHER SERVICE HASTINGS NE
300 AM CST THU JAN 29 2015

NOTE: "FAIR" INDICATES FEW OR NO CLOUDS BELOW 12,000 FEET WITH NO
SIGNIFICANT WEATHER AND/OR OBSTRUCTIONS TO VISIBILITY.

...SOUTH CENTRAL NEBRASKA...

CITY           SKY/WX    TMP DP  RH WIND       PRES   REMARKS
GRAND ISLAND   CLOUDY    37  29  72 NW25G33   30.22R WCI  25
HASTINGS       CLOUDY    38  29  70 N24G32    30.22R WCI  27
KEARNEY        MOCLDY    37  27  65 N24G30    30.24R WCI  26
ORD            CLOUDY    36  28  73 N21G32    30.22R WCI  25
YORK           CLOUDY    37  30  75 N18G32    30.16R WCI  27
AURORA         CLOUDY    37  30  75 NW24G36   30.19R WCI  26
LEXINGTON      MOCLDY    37  28  70 N28G33    30.27R WCI  25
HOLDREGE       CLOUDY    38  29  70 N24G33    30.24R WCI  26
HEBRON         CLOUDY    39  29  68 N21G32    30.20R WCI  29

...NEBRASKA PANHANDLE...

CITY           SKY/WX    TMP DP  RH WIND       PRES   REMARKS
CHADRON        PTCLDY    24  22  91 SW6       30.40R WCI  17
ALLIANCE       CLEAR     26  24  92 NW8       30.36R WCI  18
SCOTTSBLUFF    PTCLDY    35  25  66 NW13      30.36R WCI  26
SIDNEY         PTCLDY    30  26  85 N9        30.36R WCI  22

...WESTERN AND NORTH CENTRAL NEBRASKA...

CITY           SKY/WX    TMP DP  RH WIND       PRES   REMARKS
VALENTINE      CLOUDY    35  26  69 NW21G32   30.30R WCI  24
AINSWORTH      CLOUDY    35  26  71 NW21G29   30.27R WCI  23
ONEILL         CLOUDY    36  31  83 NW23G30   30.23R WCI  24
BROKEN BOW     CLOUDY    37  26  64 N29G47    30.25R WCI  25
IMPERIAL         N/A     31  25  78 MISG      30.33R
NORTH PLATTE   CLEAR     33  26  75 N13       30.30R WCI  24
MCCOOK         CLEAR     37  28  70 N20       30.30R WCI  27

...EASTERN NEBRASKA...

CITY           SKY/WX    TMP DP  RH WIND       PRES   REMARKS
NORFOLK        CLOUDY    37  30  75 NW23G32   30.16R WCI  26
SO SIOUX CITY  CLOUDY    35  30  82 NW28G36   30.11R WCI  22
TEKAMAH        CLOUDY    36  29  75 NW31G43   30.11R WCI  23
COLUMBUS       CLOUDY    36  25  64 NW22G30   30.17R WCI  24
ALBION         CLOUDY    37  29  73 NW22G32   30.19R WCI  26
OMAHA EPPLEY   DRIZZLE   37  29  72 NW26G32   30.08R WCI  25
OFFUTT AFB     LGT RAIN  36  31  83 NW21G30   30.09R WCI  25
MILLARD        CLOUDY    37  29  72 NW20G40   30.09R WCI  27
LINCOLN        CLOUDY    38  29  70 NW22G32   30.16R WCI  27
NEBRASKA CITY  CLOUDY    37  30  74 N21G38    30.08R WCI  27
BEATRICE       CLOUDY    37  31  76 N28G39    30.16R WCI  25
FALLS CITY     CLOUDY    39  31  72 NW28G37   30.09R WCI  28

...NORTHERN KANSAS...

CITY           SKY/WX    TMP DP  RH WIND       PRES   REMARKS
GOODLAND       CLEAR     34  29  82 N14       30.29R WCI  25
HILL CITY      CLEAR     39  30  70 N17       30.29R WCI  30
NORTON         PTSUNNY   37  28  70 N17G24    30.27R WCI  28
PHILLIPSBURG   CLOUDY    43  32  65 NW26G37   30.26R
SMITH CENTER   CLOUDY    39  28  65 NW23G35   30.24R WCI  29
BELOIT         CLOUDY    41  30  65 NW29G43   30.21R
HAYS           CLEAR     43  27  52 N23G32    30.24R
RUSSELL        CLEAR     43  33  68 N23G36    30.21R
CONCORDIA      CLOUDY    40  32  73 N28G38    30.19R WCI  29
SALINA         MOCLDY    48  34  58 N23G29    30.17R
TOPEKA         CLOUDY    47  36  65 NW17G24   30.09R



USA.gov is the U.S. government's official web portal to all federal, state and local government web resources and services.